TimePST,TemperatureF,Dew PointF,Humidity,Sea Level PressureIn,VisibilityMPH,Wind Direction,Wind SpeedMPH,Gust SpeedMPH,PrecipitationIn,Events,Conditions,WindDirDegrees,DateUTC
12:53 AM,39.2,39.2,100,30.31,10.0,West,5.8,-,N/A,,Clear,270,2013-02-02 08:53:00
1:53 AM,37.9,37.0,97,30.32,5.0,Calm,Calm,-,N/A,,Clear,0,2013-02-02 09:53:00
2:53 AM,37.9,37.0,97,30.32,5.0,NW,5.8,-,N/A,,Clear,320,2013-02-02 10:53:00
3:53 AM,36.0,35.1,97,30.31,4.0,WNW,3.5,-,N/A,,Clear,300,2013-02-02 11:53:00
4:22 AM,37.4,35.6,93,30.31,3.0,NW,3.5,-,N/A,,Partly Cloudy,310,2013-02-02 12:22:00
4:30 AM,37.4,35.6,93,30.30,2.5,NW,5.8,-,N/A,,Partly Cloudy,310,2013-02-02 12:30:00
4:37 AM,37.4,35.6,93,30.30,0.5,NW,4.6,-,N/A,Fog,Fog,310,2013-02-02 12:37:00
4:43 AM,35.6,35.6,100,30.30,0.2,NW,4.6,-,N/A,Fog,Fog,310,2013-02-02 12:43:00
4:53 AM,37.0,36.0,96,30.30,0.2,WNW,5.8,-,N/A,Fog,Fog,290,2013-02-02 12:53:00
5:53 AM,36.0,36.0,100,30.29,0.2,NW,6.9,-,N/A,Fog,Fog,320,2013-02-02 13:53:00
6:07 AM,35.6,35.6,100,30.29,0.2,WNW,4.6,-,N/A,Fog,Fog,290,2013-02-02 14:07:00
6:53 AM,36.0,36.0,100,30.30,0.2,WNW,4.6,-,N/A,Fog,Fog,290,2013-02-02 14:53:00
7:28 AM,35.6,35.6,100,30.30,0.1,NW,6.9,-,N/A,Fog,Fog,310,2013-02-02 15:28:00
7:53 AM,34.0,34.0,100,30.31,0.2,WNW,5.8,-,N/A,Fog,Fog,300,2013-02-02 15:53:00
8:17 AM,35.6,33.8,93,30.31,0.1,NW,5.8,-,N/A,Fog,Fog,310,2013-02-02 16:17:00
8:25 AM,35.6,35.6,100,30.31,0.2,NW,5.8,-,N/A,Fog,Fog,310,2013-02-02 16:25:00
8:53 AM,36.0,35.1,97,30.32,0.2,WNW,4.6,-,N/A,Fog,Fog,300,2013-02-02 16:53:00
8:55 AM,35.6,35.6,100,30.31,0.2,WNW,5.8,-,N/A,Fog,Fog,300,2013-02-02 16:55:00
9:06 AM,35.6,35.6,100,30.32,0.2,WNW,6.9,-,N/A,Fog,Fog,290,2013-02-02 17:06:00
9:16 AM,35.6,35.6,100,30.32,0.2,West,6.9,-,N/A,Fog,Fog,280,2013-02-02 17:16:00
9:53 AM,36.0,36.0,100,30.32,0.2,NW,5.8,-,N/A,Fog,Fog,310,2013-02-02 17:53:00
10:20 AM,37.4,37.4,100,30.32,0.2,WNW,5.8,-,N/A,Fog,Fog,300,2013-02-02 18:20:00
10:50 AM,39.2,37.4,93,30.32,0.2,West,3.5,-,N/A,Fog,Fog,280,2013-02-02 18:50:00
10:53 AM,39.0,39.0,100,30.32,0.2,WNW,4.6,-,N/A,Fog,Fog,300,2013-02-02 18:53:00
11:05 AM,39.2,39.2,100,30.32,0.2,WNW,4.6,-,N/A,,Mist,290,2013-02-02 19:05:00
11:12 AM,41.0,39.2,93,30.31,5.0,WNW,4.6,-,N/A,,Mostly Cloudy,290,2013-02-02 19:12:00
11:19 AM,42.8,39.2,87,30.31,6.0,West,6.9,-,N/A,,Mostly Cloudy,280,2013-02-02 19:19:00
11:53 AM,45.0,39.0,80,30.30,10.0,WNW,5.8,-,N/A,,Mostly Cloudy,300,2013-02-02 19:53:00
12:53 PM,48.9,39.9,71,30.29,10.0,WNW,4.6,-,N/A,,Mostly Cloudy,290,2013-02-02 20:53:00
1:53 PM,53.1,39.9,61,30.27,10.0,North,3.5,-,N/A,,Mostly Cloudy,350,2013-02-02 21:53:00
2:53 PM,55.0,39.9,57,30.27,10.0,East,8.1,-,N/A,,Mostly Cloudy,100,2013-02-02 22:53:00
3:53 PM,54.0,37.9,55,30.27,10.0,ESE,13.8,-,N/A,,Mostly Cloudy,120,2013-02-02 23:53:00
4:53 PM,51.1,41.0,68,30.28,10.0,South,6.9,-,N/A,,Mostly Cloudy,180,2013-02-03 00:53:00
5:53 PM,48.0,39.0,71,30.27,10.0,SE,5.8,-,N/A,,Scattered Clouds,140,2013-02-03 01:53:00
6:53 PM,46.9,39.0,74,30.27,10.0,SSE,4.6,-,N/A,,Partly Cloudy,150,2013-02-03 02:53:00
7:53 PM,43.0,37.9,82,30.28,10.0,SSE,5.8,-,N/A,,Clear,150,2013-02-03 03:53:00
8:53 PM,44.1,37.9,79,30.28,10.0,SSE,3.5,-,N/A,,Partly Cloudy,150,2013-02-03 04:53:00
9:53 PM,44.1,39.0,82,30.29,10.0,Calm,Calm,-,N/A,,Clear,0,2013-02-03 05:53:00
10:53 PM,43.0,37.9,82,30.30,10.0,ESE,5.8,-,N/A,,Clear,120,2013-02-03 06:53:00
11:53 PM,37.9,35.1,89,30.32,8.0,Calm,Calm,-,N/A,,Clear,0,2013-02-03 07:53:00